Tracking 29088 objects as of 14-Jul-2024
HD Live streaming from Space Station
objects crossing your sky now

COSMOS 1275 DEB

Track COSMOS 1275 DEB now!
10-day predictions


NORAD ID: 13798
Int'l Code: 1981-053GV
Perigee: 915.3 km
Apogee: 1,032.3 km
Inclination: 83.0 °
Period: 104.4 minutes
Semi major axis: 7344 km
RCS: 0.0159 m2 (small)
Launch date: June 4, 1981
Source: Commonwealth of Independent States (former USSR) (CIS)
Launch site: PLESETSK MISSILE AND SPACE COMPLEX (PKMTR)

Note: This is SATELLITE DEBRIS
Your satellite tracking list
Your tracking list is empty




NASA's NSSDC Master Catalog

Two Line Element Set (TLE):
1 13798U 81053GS  24195.65377532  .00002209  00000-0  20928-2 0  9990
2 13798  83.0084 265.8189 0079679 305.4352  53.9384 13.79211571145315
Source of the keplerian elements: AFSPC